Home > Weather > Horsham > Past weeks

Flag for United Kingdom Weather for the Past 2 Weeks in Horsham, England, United Kingdom

Now
50 °F

Scattered showers. Scattered clouds.


Feels Like: 45 °F
Forecast: 33 / 52 °F
Wind: 15 mph from West

Location: London / Gatwick Airport

Current Time: Apr 29, 2016 at 5:21:13 PM

Latest Report: Apr 29, 2016 at 4:50 PM


Visibility: N/A

Pressure: 29.86 "Hg

Humidity: 50%

Dew Point: 32 °F

Location of HorshamLocation

Historic Weather in Horsham — Graph

°F

Horsham Temperature Yesterday

Maximum temperature yesterday: 52 °F (at 2:20 PM)
Minimum temperature yesterday: 30 °F (at 4:20 AM)
Average temperature yesterday: 43 °F

High & Low Weather Summary for the Past Weeks

 TemperatureHumidityPressure
High61 °F (Apr 21, 1:50 PM)100% (Apr 14, 11:20 PM)30.45 "Hg (Apr 14, 11:20 PM)
Low30 °F (Apr 17, 3:20 AM)37% (Apr 27, 3:20 PM)29.42 "Hg (Apr 15, 5:50 PM)
Average46 °F74%29.99 "Hg
* Reported Apr 14 4:20 PM — Apr 29 4:20 PM, Horsham, Weather by CustomWeather, © 2016

Note: Actual official high and low records may vary slightly from our data, if they occured in-between our weather recording intervals... More about our weather records

Advertising

Horsham Weather History for the Previous 24 Hours

Scroll right to see more
 ConditionsComfort  
Time TempWeatherWind HumidityBarometerVisibility
4:20 PM
Fri, Apr 29
50 °FScattered showers. Scattered clouds.16 mph54%29.86 "HgN/A
3:50 PM50 °FSunny.14 mph62%29.86 "Hg10 mi
3:20 PM48 °FPassing clouds.8 mph71%29.86 "HgN/A
2:50 PM41 °FSprinkles. Broken clouds.24 mph81%29.89 "HgN/A
2:20 PM52 °FScattered clouds.14 mph47%29.86 "HgN/A
1:50 PM50 °FScattered clouds.13 mph54%29.86 "HgN/A
1:20 PM50 °FSprinkles. Scattered clouds.15 mph47%29.86 "HgN/A
12:50 PM52 °FPassing clouds.17 mph44%29.83 "HgN/A
12:20 PM50 °FScattered clouds.14 mph50%29.83 "HgN/A
11:50 AM50 °FPartly sunny.14 mph54%29.83 "HgN/A
11:20 AM50 °FPartly sunny.16 mph54%29.83 "HgN/A
10:50 AM48 °FBroken clouds.15 mph58%29.83 "HgN/A
10:20 AM46 °FPartly sunny.14 mph62%29.83 "HgN/A
9:50 AM46 °FScattered clouds.16 mph62%29.83 "HgN/A
9:20 AM45 °FPassing clouds.12 mph66%29.83 "HgN/A
8:50 AM45 °FPassing clouds.13 mph66%29.83 "HgN/A
8:20 AM43 °FSunny.10 mph71%29.83 "Hg10 mi
7:50 AM43 °FPassing clouds.8 mph76%29.83 "HgN/A
7:20 AM41 °FPartly sunny.7 mph76%29.83 "HgN/A
6:50 AM41 °FSunny.8 mph76%29.83 "Hg10 mi
6:20 AM41 °FClear.7 mph76%29.83 "Hg10 mi
5:50 AM41 °FClear.9 mph76%29.83 "Hg10 mi
5:20 AM41 °FClear.8 mph76%29.83 "Hg10 mi
4:50 AM41 °FClear.13 mph76%29.80 "Hg10 mi
4:20 AM43 °FPassing clouds.10 mph71%29.80 "HgN/A
3:20 AM43 °FPassing clouds.13 mph76%29.80 "HgN/A
2:50 AM45 °FPassing clouds.10 mph81%29.80 "HgN/A
2:20 AM45 °FPassing clouds.8 mph81%29.80 "HgN/A
1:50 AM45 °FPassing clouds.8 mph81%29.80 "HgN/A
1:20 AM45 °FPassing clouds.7 mph81%29.80 "HgN/A
12:50 AM45 °FPassing clouds.14 mph87%29.83 "HgN/A
12:20 AM45 °FPassing clouds.9 mph87%29.80 "HgN/A
11:50 PM
Thu, Apr 28
45 °FPassing clouds.9 mph87%29.83 "HgN/A
11:20 PM45 °FPassing clouds.14 mph87%29.83 "HgN/A
10:50 PM46 °FSprinkles. Passing clouds.12 mph82%29.83 "HgN/A
10:20 PM48 °FPassing clouds.12 mph76%29.83 "HgN/A
9:50 PM46 °FPassing clouds.13 mph82%29.83 "HgN/A
9:20 PM46 °FSprinkles. Passing clouds.12 mph76%29.86 "HgN/A
8:50 PM48 °FScattered clouds.15 mph71%29.86 "HgN/A
8:20 PM46 °FScattered clouds.13 mph71%29.86 "HgN/A
7:50 PM48 °FPassing clouds.14 mph66%29.86 "HgN/A
7:20 PM48 °FPassing clouds.14 mph62%29.86 "HgN/A
6:50 PM48 °FPassing clouds.15 mph66%29.89 "HgN/A
6:20 PM50 °FScattered clouds.15 mph62%29.89 "HgN/A
5:50 PM48 °FScattered clouds.14 mph62%29.89 "HgN/A
5:20 PM50 °FPassing clouds.16 mph58%29.89 "HgN/A
Weather by CustomWeather, © 2016

See weather overviewHow to use our weather pages